Home   Weather   Regensdorf   Past weeks

Flag for Switzerland Past Weather in Regensdorf, Zurich, Switzerland — Yesterday and Last 2 Weeks

Now
26 °F

Fog.


Feels Like: 26 °F
Forecast: 26 / 46 °F
Wind: 1 mph from Northeast

Location: Zurich-Kloten

Current Time: Dec 9, 2016 at 4:56:26 am

Latest Report: Dec 9, 2016 at 4:00 am


Visibility: 4 mi

Pressure: 30.63 "Hg

Humidity: 95%

Dew Point: 25 °F

Location of RegensdorfLocation

Past Weather in Regensdorf — Graph

°F

Regensdorf Temperature Yesterday

Maximum temperature yesterday: 42 °F (at 3:00 pm)
Minimum temperature yesterday: 28 °F (at 10:00 pm)
Average temperature yesterday: 32 °F

High & Low Weather Summary for the Past Weeks

 TemperatureHumidityPressure
High49 °F (Nov 24, 12:00 pm)100% (Nov 24, 3:00 am)30.69 "Hg (Nov 24, 3:00 am)
Low19 °F (Nov 30, 6:00 am)46% (Nov 28, 3:00 pm)29.90 "Hg (Nov 25, 6:00 am)
Average34 °F85%30.32 "Hg
* Reported Nov 24 3:00 am — Dec 9 3:00 am, Regensdorf, Weather by CustomWeather, © 2016

Note: Actual official high and low records may vary slightly from our data, if they occured in-between our weather recording intervals... More about our weather records

Advertising

Regensdorf Weather History for the Previous 24 Hours

Scroll right to see more
 ConditionsComfort  
Time TempWeatherWind HumidityBarometerVisibility
3:00 am
Fri, Dec 9
25 °FCold.6 mph93%30.63 "HgN/A
2:00 am26 °FChilly.8 mph93%30.63 "HgN/A
1:00 am26 °FFog.5 mph96%30.63 "Hg1 mi
12:00 am24 °FCold.1 mph96%30.64 "HgN/A
11:00 pm
Thu, Dec 8
28 °FChilly.2 mph100%30.62 "HgN/A
10:00 pm28 °FFog.2 mph96%30.63 "Hg4 mi
9:00 pm28 °FChilly.3 mph96%30.62 "HgN/A
8:00 pm31 °FChilly.No wind96%30.62 "HgN/A
7:00 pm33 °FFog.5 mph87%30.61 "Hg9 mi
6:00 pm34 °FChilly.3 mph81%30.60 "HgN/A
5:00 pm37 °FChilly.3 mph74%30.58 "HgN/A
4:00 pm40 °FPartly sunny.5 mph67%30.56 "Hg7 mi
3:00 pm42 °FQuite cool.5 mph63%30.55 "HgN/A
2:00 pm41 °FQuite cool.6 mph66%30.58 "HgN/A
1:00 pm39 °FFog.7 mph69%30.60 "Hg4 mi
12:00 pm35 °FChilly.5 mph81%30.64 "HgN/A
11:00 am33 °FChilly.6 mph84%30.67 "HgN/A
10:00 am31 °FFog.6 mph90%30.68 "Hg3 mi
9:00 am29 °FChilly.5 mph93%30.68 "HgN/A
8:00 am29 °FChilly.5 mph95%30.68 "HgN/A
7:00 am28 °FFog.3 mph94%30.68 "Hg3 mi
6:00 am29 °FChilly.3 mph96%30.68 "HgN/A
5:00 am29 °FChilly.3 mph96%30.68 "HgN/A
4:00 am29 °FFog.5 mph95%30.67 "Hg1 mi
Weather by CustomWeather, © 2016

See weather overviewHow to use our weather pages